Location: Lima
(44.6384°N, 112.5920°W)
Time: 05:01:35
(UTC+00:00)

STARS - Visible Passes

Search period start: 16 April 2024 00:00
Search period end: 26 April 2024 00:00
Orbit: 609 x 620 km, 98.1° (Epoch: 15 April)

Date Brightness Start Highest point End Pass type
(mag) Time Alt. Az. Time Alt. Az. Time Alt. Az.
16 Apr ? 08:15:45 10° N 08:17:18 20° NNW 08:17:18 20° NNW visible
17 Apr ? 06:55:30 10° NE 06:56:04 13° NE 06:56:04 13° NE visible
17 Apr ? 08:31:33 10° N 08:33:07 19° NNW 08:33:07 19° NNW visible
18 Apr ? 07:10:47 10° NNE 07:11:52 17° NNE 07:11:52 17° NNE visible
18 Apr ? 08:47:28 10° NNW 08:48:55 16° NW 08:48:55 16° NW visible
19 Apr ? 07:26:11 10° NNE 07:27:39 21° NNE 07:27:39 21° NNE visible
19 Apr ? 09:03:37 10° NNW 09:04:42 13° NW 09:04:42 13° NW visible
20 Apr ? 07:41:40 10° NNE 07:43:26 24° NNE 07:43:26 24° NNE visible
21 Apr ? 07:57:12 10° N 07:59:11 26° N 07:59:11 26° N visible
22 Apr ? 06:37:37 10° NE 06:37:53 11° NE 06:37:53 11° NE visible
22 Apr ? 08:12:50 10° N 08:14:56 25° NNW 08:14:56 25° NNW visible
23 Apr ? 06:52:38 10° NE 06:53:38 15° NE 06:53:38 15° NE visible
23 Apr ? 08:28:32 10° N 08:30:40 23° NNW 08:30:40 23° NNW visible
24 Apr ? 07:07:49 10° NNE 07:09:21 20° NE 07:09:21 20° NE visible
24 Apr ? 08:44:21 10° NNW 08:46:24 19° NW 08:46:24 19° NW visible
25 Apr ? 07:23:07 10° NNE 07:25:04 25° NNE 07:25:04 25° NNE visible
25 Apr ? 09:00:21 10° NNW 09:02:06 15° NW 09:02:06 15° NW visible
